This demonstration page uses our WeatherBlox Daily Observations layout. Learn more.

Hourly Observations for April 26, 2019

Temp ( °F °C ) Dew Point ( °F °C ) Humidity (%) Winds ( mph kmh ) Pressure ( in mb ) Visibility ( mi km ) Precip ( " mm )
12:15 am 00:15 Clear 45 7.2 38 3.5 78 78 NNE 7 11 30.19 1022 10 16.0934 0 0
12:35 am 00:35 Clear 45 7 38 3.1 76 76 NNE 6 9 30.19 1022 10 16.0934 0 0
12:55 am 00:55 Clear 45 7.3 37 3 74 74 NNE 6 9 30.19 1022 10 16.0934 0 0
1:15 am 01:15 Clear 44 6.7 37 2.5 75 75 NW 3 6 30.2 1023 10 16.0934 0 0
1:35 am 01:35 Clear 45 7.1 37 2.5 73 73 NNW 5 7 30.2 1023 10 16.0934 0 0
1:55 am 01:55 Clear 44 6.4 36 2.4 76 76 NW 5 7 30.21 1023 10 16.0934 0 0
2:15 am 02:15 Clear 43 6 36 2.4 78 78 NNW 7 11 30.21 1023 10 16.0934 0 0
2:35 am 02:35 Clear 43 5.9 36 2.2 77 77 WNW 5 7 30.21 1023 10 16.0934 0 0
2:55 am 02:55 Clear 42 5.7 35 1.9 77 77 NW 5 7 30.2 1023 10 16.0934 0 0
3:15 am 03:15 Clear 41 5.1 36 2.2 82 82 NNW 5 7 30.22 1023 10 16.0934 0 0
3:35 am 03:35 Clear 41 4.8 36 2.1 83 83 N 5 7 30.21 1023 10 16.0934 0 0
3:55 am 03:55 Clear 41 4.8 35 1.9 82 82 NW 3 6 30.22 1023 10 16.0934 0 0
4:15 am 04:15 Partly Cloudy 40 4.5 35 1.7 82 82 NNW 3 6 30.22 1023 10 16.0934 0 0
4:35 am 04:35 Partly Cloudy 39 4.1 35 1.5 83 83 NNW 3 6 30.23 1024 10 16.0934 0 0
4:55 am 04:55 Clear 40 4.3 35 1.5 82 82 N 6 9 30.22 1024 10 16.0934 0 0
5:15 am 05:15 Clear 40 4.2 35 1.5 83 83 N 6 9 30.23 1024 10 16.0934 0 0
5:35 am 05:35 Clear 40 4.2 35 1.4 82 82 N 6 9 30.23 1024 10 16.0934 0 0
5:55 am 05:55 Partly Cloudy 40 4.5 34 1.3 80 80 Calm 30.22 1023 10 16.0934 0 0
6:15 am 06:15 Mostly Cloudy 39 4 35 1.5 84 84 Calm 30.23 1024 10 16.0934 0 0
6:35 am 06:35 Cloudy 40 4.4 36 2.3 86 86 Calm 30.22 1023 10 16.0934 0 0
6:55 am 06:55 Cloudy 40 4.7 37 2.8 88 88 Calm 30.23 1024 10 16.0934 0 0
7:15 am 07:15 Cloudy 41 5.1 37 2.9 86 86 Calm 30.23 1024 10 16.0934 0 0
7:35 am 07:35 Cloudy 42 5.7 38 3.2 84 84 Calm 30.23 1024 10 16.0934 0 0
7:55 am 07:55 Partly Cloudy 45 7.1 37 2.8 74 74 E 5 7 30.22 1023 10 16.0934 0 0
8:15 am 08:15 Partly Cloudy 46 7.6 36 2.2 69 69 ESE 7 11 30.21 1023 10 16.0934 0 0
8:35 am 08:35 Sunny 48 8.9 33 0.6 56 56 E 10 17 30.19 1022 10 16.0934 0 0
8:55 am 08:55 Sunny 49 9.7 31 -0.7 49 49 E 13 20 30.18 1022 10 16.0934 0 0
9:15 am 09:15 Sunny 51 10.7 29 -1.6 43 43 E 16 26 30.17 1022 10 16.0934 0 0
9:35 am 09:35 Sunny 52 11.3 27 -2.6 38 38 ESE 16 26 30.15 1021 10 16.0934 0 0
9:55 am 09:55 Sunny 54 12.1 28 -2.5 36 36 ESE 17 28 30.13 1020 10 16.0934 0 0
10:15 am 10:15 Sunny 55 12.8 28 -2.5 35 35 ESE 16 26 30.13 1020 10 16.0934 0 0
10:35 am 10:35 Sunny 56 13.3 28 -2.1 35 35 SE 16 26 30.11 1020 10 16.0934 0 0
10:55 am 10:55 Sunny 58 14.2 29 -1.7 34 34 SE 17 28 30.1 1019 10 16.0934 0 0
11:15 am 11:15 Mostly Cloudy 58 14.6 29 -1.6 33 33 SE 17 28 30.09 1019 10 16.0934 0 0
11:35 am 11:35 Cloudy 60 15.5 31 -0.7 33 33 SE 18 30 30.07 1018 10 16.0934 0 0
11:55 am 11:55 Cloudy 59 15 31 -0.6 35 35 SSE 16 26 30.07 1018 10 16.0934 0 0
12:15 pm 12:15 Cloudy 59 15 32 -0.2 36 36 SE 14 22 30.06 1018 10 16.0934 0 0
12:35 pm 12:35 Mostly Cloudy 61 16 32 0.2 34 34 SSE 21 33 30.02 1017 10 16.0934 0 0
12:55 pm 12:55 Sunny 63 17 34 0.9 34 34 SSE 16 26 30 1016 10 16.0934 0 0
1:15 pm 13:15 Sunny 63 17.1 35 1.6 35 35 SSE 21 33 29.98 1015 10 16.0934 0 0
1:35 pm 13:35 Sunny 64 17.9 36 2.2 35 35 SSE 20 31 29.95 1014 10 16.0934 0 0
1:55 pm 13:55 Sunny 65 18.3 38 3.2 37 37 SSE 20 31 29.94 1014 10 16.0934 0 0
2:15 pm 14:15 Sunny 65 18.5 39 3.7 38 38 S 21 33 29.93 1014 10 16.0934 0 0
2:35 pm 14:35 Sunny 67 19.3 40 4.3 37 37 SSE 18 30 29.9 1013 10 16.0934 0 0
2:55 pm 14:55 Sunny 68 20 41 5.1 38 38 S 18 30 29.88 1012 10 16.0934 0 0
3:15 pm 15:15 Sunny 70 20.9 42 5.7 37 37 SSE 20 31 29.84 1010 10 16.0934 0 0
3:35 pm 15:35 Sunny 71 21.9 43 6.1 36 36 SSE 18 30 29.82 1010 10 16.0934 0 0
3:55 pm 15:55 Sunny 73 22.5 43 6.1 35 35 S 20 31 29.8 1009 10 16.0934 0 0
4:15 pm 16:15 Sunny 73 23 44 6.5 35 35 S 22 35 29.76 1008 10 16.0934 0 0
4:35 pm 16:35 Sunny 73 22.9 44 6.6 35 35 S 21 33 29.74 1007 10 16.0934 0 0
4:55 pm 16:55 Sunny 74 23.6 45 7.4 35 35 S 20 31 29.72 1006 10 16.0934 0 0
5:15 pm 17:15 Partly Cloudy 75 24 45 7.3 34 34 S 21 33 29.71 1006 10 16.0934 0 0
5:35 pm 17:35 Partly Cloudy 74 23.3 45 7.3 36 36 SSE 23 37 29.7 1006 10 16.0934 0 0
5:55 pm 17:55 Partly Cloudy 75 23.7 46 7.5 35 35 S 26 43 29.68 1005 10 16.0934 0 0
6:15 pm 18:15 Sunny 73 23 45 7.1 36 36 SSE 20 31 29.67 1005 10 16.0934 0 0
6:35 pm 18:35 Sunny 73 22.5 46 7.6 38 38 SSE 23 37 29.67 1005 10 16.0934 0 0
6:55 pm 18:55 Sunny 72 22.2 46 7.7 39 39 SSE 21 33 29.66 1004 10 16.0934 0 0
7:15 pm 19:15 Sunny 71 21.7 46 7.6 40 40 SSE 22 35 29.65 1004 10 16.0934 0 0
7:35 pm 19:35 Sunny 70 21.1 45 7.3 41 41 SSE 17 28 29.65 1004 10 16.0934 0 0
7:55 pm 19:55 Sunny 68 20.2 45 7 43 43 SSE 18 30 29.65 1004 10 16.0934 0 0
8:15 pm 20:15 Sunny 66 19 45 7.1 46 46 SSE 20 31 29.64 1004 10 16.0934 0 0
8:35 pm 20:35 Clear 65 18.4 45 7.4 49 49 SSE 20 31 29.63 1003 10 16.0934 0 0
8:55 pm 20:55 Clear 66 18.9 45 7.2 47 47 SSE 18 30 29.61 1003 10 16.0934 0 0
9:15 pm 21:15 Clear 65 18.2 44 6.6 47 47 SSE 20 31 29.6 1002 10 16.0934 0 0
9:35 pm 21:35 Clear 65 18.2 44 6.6 47 47 SSE 22 35 29.59 1002 10 16.0934 0 0
9:55 pm 21:55 Clear 65 18.1 44 6.9 48 48 S 22 35 29.6 1002 10 16.0934 0 0
10:15 pm 22:15 Clear 65 18.3 45 7 48 48 S 25 41 29.59 1002 10 16.0934 0 0
10:35 pm 22:35 Clear 64 18 45 7 49 49 S 24 39 29.57 1002 10 16.0934 0 0
10:55 pm 22:55 Mostly Cloudy 64 17.7 45 7.2 50 50 NNE 14 22 29.66 1004 10 16.0934 0 0
11:15 pm 23:15 Cloudy 65 18.3 44 6.8 47 47 E 8 13 29.67 1005 10 16.0934 0 0
11:35 pm 23:35 Partly Cloudy 64 18 44 6.5 47 47 SE 8 13 29.64 1004 10 16.0934 0 0
11:55 pm 23:55 Partly Cloudy 63 17.1 44 6.5 50 50 SE 15 24 29.61 1003 10 16.0934 0 0

Powered by AerisWeather